MPEC 2023-R229 : 2023 RF10
The following Minor Planet Electronic Circular may be linked-to from your own Web pages, but must not otherwise be redistributed electronically.A form allowing access to any MPEC is at the bottom of this page.


M.P.E.C. 2023-R229 Issued 2023 September 15, 14:39 UT The Minor Planet Electronic Circulars contain information on unusual minor planets, routine data on comets and natural satellites, and occasional editorial announcements. They are published on behalf of Division F of the International Astronomical Union by the Minor Planet Center, Smithsonian Astrophysical Observatory, Cambridge, MA 02138, U.S.A. Prepared using the Tamkin Foundation Computer Network MPC@CFA.HARVARD.EDU URL https://www.minorplanetcenter.net/ ISSN 1523-6714 2023 RF10 Observations: K23R10F* C2023 09 11.37811822 29 45.702-28 34 18.93 21.67wXER229F51 K23R10F C2023 09 11.38774322 29 45.230-28 34 58.79 21.80wXER229F51 K23R10F C2023 09 11.39737622 29 44.738-28 35 38.68 21.34wXER229F51 K23R10F KC2023 09 11.57666722 29 40.80 -28 46 15.5 21.4 GVER229474 K23R10F KC2023 09 11.58138322 29 40.69 -28 46 34.6 21.3 GVER229474 K23R10F KC2023 09 11.59223322 29 40.37 -28 47 18.5 21.9 GVER229474 K23R10F 3C2023 09 12.42537722 29 37.711-29 48 22.58 21.43GVER229T14 K23R10F 3C2023 09 12.42636522 29 37.661-29 48 26.83 21.45GVER229T14 K23R10F 3C2023 09 12.42734222 29 37.612-29 48 31.05 21.37GVER229T14 K23R10F 3C2023 09 15.38912522 29 35.351-33 46 02.36 21.34GVER229T14 K23R10F 3C2023 09 15.39010022 29 35.300-33 46 07.47 21.29GVER229T14 K23R10F 3C2023 09 15.39107822 29 35.247-33 46 12.71 21.39GVER229T14 K23R10F KC2023 09 15.47736022 29 35.86 -33 51 57.1 20.7 GVER229474 K23R10F KC2023 09 15.48207722 29 35.74 -33 52 22.6 21.1 GVER229474 K23R10F KC2023 09 15.48679322 29 35.50 -33 52 48.9 21.4 GVER229474 K23R10F KC2023 09 15.49150822 29 35.21 -33 53 12.6 21.4 GVER229474 Observer details: 474 Mount John Observatory, Lake Tekapo. Observers A. C. Gilmore, P. M. Kilmartin. Measurer P. M. Kilmartin. 1.0-m f/7.7 reflector + CCD. F51 Pan-STARRS 1, Haleakala. Observers J. Bulger, T. Lowe, P. Minguez, A. Schultz, I. Smith. Measurers K. Chambers, T. de Boer, J. Bulger, J. Fairlamb, H. Gao, M. Huber, C.-C. Lin, T. Lowe, E. Magnier, P. Minguez, Y. Ramanjooloo, A. Schultz, I. Smith, R. Wainscoat, R. Weryk. 1.8-m Ritchey- Chretien + CCD. T14 Canada-France-Hawaii Telescope, Maunakea. Observers R. Wainscoat, L. Wells, T. Burdullis, H. Januszewski, H. Flewelling. Measurers R. Weryk, R. Wainscoat. 3.6-m Canada-France-Hawaii Telescope + CCD. Orbital elements: 2023 RF10 Earth MOID = 0.0312 AU Epoch 2023 Sept. 13.0 TT = JDT 2460200.5 Veres M 324.87947 (2000.0) P Q n 0.61992321 Peri. 278.52378 +0.61856734 -0.78502276 a 1.3622102 Node 133.20948 +0.73770866 +0.56561613 e 0.3109774 Incl. 2.62433 +0.27048176 +0.25262157 P 1.59 H 25.61 G 0.15 U 8 Residuals in seconds of arc 230911 F51 0.0 0.0 230912 T14 0.0 0.0 230915 474 0.5- 0.8+ 230911 F51 0.0 0.0 230912 T14 0.0 0.0 230915 474 0.2+ 0.4+ 230911 F51 0.1- 0.1- 230912 T14 0.0 0.0 230915 474 0.5- 1.0- 230911 474 0.3- 0.1+ 230915 T14 0.0 0.0 230915 474 1.8- 0.3+ 230911 474 0.4+ 0.1+ 230915 T14 0.0 0.0 230911 474 1.1+ 0.0 230915 T14 0.0 0.0 Ephemeris: 2023 RF10 a,e,i = 1.36, 0.31, 3 q = 0.9386 Date TT R. A. (2000) Decl. Delta r Elong. Phase V 2023 08 16 22 32 07.6 -12 34 04 0.2027 1.2112 167.2 10.7 23.2 ... 2023 08 31 22 31 29.6 -18 58 18 0.1321 1.1399 169.9 8.9 22.1 ... 2023 09 08 22 30 11.9 -25 03 12 0.1015 1.1033 159.3 18.8 21.8 ... 2023 09 14 22 29 34.5 -31 47 39 0.08162 1.0770 149.0 28.8 21.6 2023 09 15 22 29 34.7 -33 10 41 0.07855 1.0727 147.1 30.6 21.6 2023 09 16 22 29 37.8 -34 39 13 0.07556 1.0685 145.1 32.6 21.5 ... 2023 09 22 22 31 45.9 -45 58 01 0.05929 1.0440 131.2 46.4 21.3 ... 2023 09 30 22 54 39.6 -70 55 21 0.04393 1.0141 105.2 72.4 21.4 ... 2023 10 15 10 05 19.0 -46 03 37 0.05193 0.9692 55.9 121.6 24.1 M. P. C. Staff (C) Copyright 2023 MPC M.P.E.C. 2023-R229


Enter an MPEC number in one of the following forms:
- 1997-B01 (the full form)
- J97B01 (the packed version of the full form)
- B01 (the abbreviated form)